TimeCST,TemperatureF,Dew PointF,Humidity,Sea Level PressureIn,VisibilityMPH,Wind Direction,Wind SpeedMPH,Gust SpeedMPH,PrecipitationIn,Events,Conditions,WindDirDegrees,DateUTC
12:15 AM,10.4,8.6,92,30.16,10.0,South,6.9,-,N/A,,Clear,180,2012-11-13 06:15:00
12:35 AM,10.4,8.6,92,30.16,10.0,South,5.8,-,N/A,,Clear,180,2012-11-13 06:35:00
12:55 AM,10.4,8.6,92,30.16,10.0,South,5.8,-,N/A,,Clear,180,2012-11-13 06:55:00
1:15 AM,10.4,8.6,92,30.16,10.0,South,5.8,-,N/A,,Clear,170,2012-11-13 07:15:00
1:35 AM,10.4,10.4,100,30.15,10.0,South,5.8,-,N/A,,Clear,170,2012-11-13 07:35:00
1:55 AM,10.4,8.6,92,30.16,10.0,South,5.8,-,N/A,,Clear,180,2012-11-13 07:55:00
2:15 AM,12.2,12.2,100,30.16,10.0,South,6.9,-,N/A,,Clear,180,2012-11-13 08:15:00
2:35 AM,12.2,10.4,92,30.16,10.0,South,5.8,-,N/A,,Clear,180,2012-11-13 08:35:00
2:55 AM,10.4,10.4,100,30.15,10.0,South,5.8,-,N/A,,Clear,180,2012-11-13 08:55:00
3:15 AM,12.2,10.4,92,30.15,10.0,South,8.1,-,N/A,,Clear,180,2012-11-13 09:15:00
3:35 AM,12.2,12.2,100,30.15,10.0,South,9.2,-,N/A,,Clear,180,2012-11-13 09:35:00
3:55 AM,12.2,10.4,92,30.15,10.0,South,8.1,-,N/A,,Clear,180,2012-11-13 09:55:00
4:15 AM,12.2,10.4,92,30.15,10.0,South,8.1,-,N/A,,Clear,190,2012-11-13 10:15:00
4:35 AM,12.2,12.2,100,30.15,10.0,South,6.9,-,N/A,,Clear,190,2012-11-13 10:35:00
4:55 AM,14.0,14.0,100,30.15,10.0,South,8.1,-,N/A,,Clear,190,2012-11-13 10:55:00
5:15 AM,14.0,12.2,93,30.15,10.0,South,8.1,-,N/A,,Clear,190,2012-11-13 11:15:00
6:35 AM,12.2,8.6,85,30.17,10.0,SSW,5.8,-,N/A,,Clear,210,2012-11-13 12:35:00
6:55 AM,12.2,8.6,85,30.16,10.0,South,5.8,-,N/A,,Clear,190,2012-11-13 12:55:00
7:15 AM,12.2,8.6,85,30.17,10.0,South,4.6,-,N/A,,Clear,190,2012-11-13 13:15:00
7:35 AM,12.2,10.4,92,30.17,10.0,South,5.8,-,N/A,,Clear,190,2012-11-13 13:35:00
7:55 AM,15.8,12.2,86,30.18,10.0,South,6.9,-,N/A,,Clear,190,2012-11-13 13:55:00
8:15 AM,15.8,14.0,93,30.19,10.0,SSW,6.9,-,N/A,,Clear,210,2012-11-13 14:15:00
8:35 AM,15.8,15.8,100,30.19,10.0,SSW,5.8,-,N/A,,Clear,210,2012-11-13 14:35:00
8:55 AM,15.8,14.0,93,30.19,10.0,SSW,5.8,-,N/A,,Clear,210,2012-11-13 14:55:00
9:15 AM,17.6,14.0,86,30.19,10.0,SSW,6.9,-,N/A,,Clear,210,2012-11-13 15:15:00
9:35 AM,17.6,15.8,93,30.19,10.0,SW,3.5,-,N/A,,Mostly Cloudy,220,2012-11-13 15:35:00
10:15 AM,19.4,15.8,86,30.21,10.0,SW,5.8,-,N/A,,Scattered Clouds,220,2012-11-13 16:15:00
10:35 AM,19.4,15.8,86,30.21,10.0,WSW,3.5,-,N/A,,Mostly Cloudy,240,2012-11-13 16:35:00
10:55 AM,21.2,17.6,86,30.21,10.0,WSW,3.5,-,N/A,,Mostly Cloudy,240,2012-11-13 16:55:00
11:15 AM,21.2,17.6,86,30.22,10.0,WSW,3.5,-,N/A,,Mostly Cloudy,240,2012-11-13 17:15:00
11:35 AM,21.2,19.4,93,30.21,10.0,Calm,Calm,-,N/A,,Mostly Cloudy,0,2012-11-13 17:35:00
11:55 AM,21.2,19.4,93,30.20,10.0,WSW,3.5,-,N/A,,Partly Cloudy,250,2012-11-13 17:55:00
12:15 PM,23.0,19.4,86,30.20,10.0,Calm,Calm,-,N/A,,Scattered Clouds,0,2012-11-13 18:15:00
12:55 PM,24.8,19.4,80,30.20,10.0,South,3.5,-,N/A,,Clear,190,2012-11-13 18:55:00
1:15 PM,24.8,21.2,86,30.20,10.0,South,4.6,-,N/A,,Scattered Clouds,190,2012-11-13 19:15:00
1:35 PM,24.8,21.2,86,30.19,10.0,SSW,3.5,-,N/A,,Scattered Clouds,200,2012-11-13 19:35:00
1:55 PM,24.8,21.2,86,30.20,10.0,SSW,4.6,-,N/A,,Scattered Clouds,200,2012-11-13 19:55:00
2:15 PM,24.8,21.2,86,30.19,10.0,Calm,Calm,-,N/A,,Scattered Clouds,0,2012-11-13 20:15:00
2:35 PM,24.8,19.4,80,30.19,10.0,Calm,Calm,-,N/A,,Partly Cloudy,0,2012-11-13 20:35:00
2:55 PM,26.6,21.2,80,30.19,10.0,Calm,Calm,-,N/A,,Clear,0,2012-11-13 20:55:00
3:15 PM,24.8,21.2,86,30.19,10.0,Calm,Calm,-,N/A,,Mostly Cloudy,0,2012-11-13 21:15:00
3:35 PM,24.8,21.2,86,30.20,10.0,Calm,Calm,-,N/A,,Overcast,0,2012-11-13 21:35:00
3:55 PM,24.8,21.2,86,30.21,10.0,Calm,Calm,-,N/A,,Mostly Cloudy,0,2012-11-13 21:55:00
4:15 PM,24.8,21.2,86,30.21,10.0,Calm,Calm,-,N/A,,Mostly Cloudy,0,2012-11-13 22:15:00
4:35 PM,24.8,21.2,86,30.20,10.0,Calm,Calm,-,N/A,,Mostly Cloudy,0,2012-11-13 22:35:00
4:55 PM,24.8,21.2,86,30.20,10.0,Calm,Calm,-,N/A,,Mostly Cloudy,0,2012-11-13 22:55:00
5:15 PM,24.8,23.0,93,30.20,10.0,Calm,Calm,-,N/A,,Overcast,0,2012-11-13 23:15:00
5:35 PM,24.8,23.0,93,30.21,10.0,Calm,Calm,-,N/A,,Overcast,0,2012-11-13 23:35:00
5:55 PM,24.8,21.2,86,30.21,10.0,Calm,Calm,-,N/A,,Overcast,0,2012-11-13 23:55:00
6:15 PM,24.8,21.2,86,30.21,10.0,Calm,Calm,-,N/A,,Overcast,0,2012-11-14 00:15:00
6:35 PM,24.8,21.2,86,30.21,10.0,Calm,Calm,-,N/A,,Overcast,0,2012-11-14 00:35:00
6:55 PM,24.8,21.2,86,30.22,10.0,Calm,Calm,-,N/A,,Mostly Cloudy,0,2012-11-14 00:55:00
7:15 PM,24.8,21.2,86,30.22,10.0,Calm,Calm,-,N/A,,Scattered Clouds,0,2012-11-14 01:15:00
7:35 PM,24.8,23.0,93,30.22,10.0,Calm,Calm,-,N/A,,Mostly Cloudy,0,2012-11-14 01:35:00
7:55 PM,24.8,21.2,86,30.22,10.0,Calm,Calm,-,N/A,,Overcast,0,2012-11-14 01:55:00
8:15 PM,24.8,21.2,86,30.22,10.0,Calm,Calm,-,N/A,,Overcast,0,2012-11-14 02:15:00
8:35 PM,24.8,21.2,86,30.22,10.0,NNE,5.8,-,N/A,,Overcast,20,2012-11-14 02:35:00
8:55 PM,24.8,21.2,86,30.23,10.0,NNE,3.5,-,N/A,,Overcast,20,2012-11-14 02:55:00
9:15 PM,24.8,19.4,80,30.22,10.0,NE,3.5,-,N/A,,Overcast,50,2012-11-14 03:15:00
9:35 PM,21.2,19.4,93,30.23,9.0,ENE,4.6,-,N/A,,Scattered Clouds,60,2012-11-14 03:35:00
9:55 PM,21.2,17.6,86,30.22,8.0,ENE,4.6,-,N/A,,Clear,60,2012-11-14 03:55:00
10:15 PM,21.2,17.6,86,30.22,8.0,East,3.5,-,N/A,,Clear,80,2012-11-14 04:15:00
10:35 PM,21.2,17.6,86,30.22,8.0,Calm,Calm,-,N/A,,Clear,0,2012-11-14 04:35:00
10:55 PM,21.2,17.6,86,30.22,7.0,Calm,Calm,-,N/A,,Clear,0,2012-11-14 04:55:00
11:15 PM,19.4,19.4,100,30.22,7.0,Calm,Calm,-,N/A,,Clear,0,2012-11-14 05:15:00
11:35 PM,19.4,17.6,93,30.22,5.0,Calm,Calm,-,N/A,,Scattered Clouds,0,2012-11-14 05:35:00
11:55 PM,19.4,17.6,93,30.21,7.0,Calm,Calm,-,N/A,,Mostly Cloudy,0,2012-11-14 05:55:00